Regional Weather Roundup
Issued by NWS Charleston, WV

Home | Current Version | Previous Version | Text Only | Print | Product List | Glossary On
Versions: 1 2 3 4 5 6 7 8 9 10 11 12 13 14 15 16 17 18 19 20 21 22 23 24 25 26 27 28 29 30 31 32 33 34 35 36 37 38 39 40 41 42 43 44 45 46 47 48 49
000
ASUS41 KRLX 301010
RWRRLX
West Virginia Regional Weather Roundup
National Weather Service Charleston WV
500 AM EST FRI JAN 30 2015

Note: "fair" indicates few or no clouds below 12,000 feet with no
significant weather and/or obstructions to visibility.

WVZ003-301100-
Northern Panhandle of West Virginia

CITY           SKY/WX    TMP DP  RH WIND       PRES   REMARKS
WHEELING       CLOUDY    28  21  75 NW21G31   30.05R
$$

WVZ009-301100-
Northwest West Virginia

CITY           SKY/WX    TMP DP  RH WIND       PRES   REMARKS
PARKERSBURG    FLURRIES  32  28  85 W10       30.15R
$$

WVZ006-301100-
Western West Virginia

CITY           SKY/WX    TMP DP  RH WIND       PRES   REMARKS
HUNTINGTON     LGT SNOW  32  29  88 W8        30.20R FOG
$$

WVZ015-301100-
West Central West Virginia

CITY           SKY/WX    TMP DP  RH WIND       PRES   REMARKS
CHARLESTON     LGT SNOW  32  27  81 NW13G23   30.16R
$$

WVZ022-031-301100-
North Central West Virginia

CITY           SKY/WX    TMP DP  RH WIND       PRES   REMARKS
CLARKSBURG     FLURRIES  31  29  92 W5        30.05R
MORGANTOWN     CLOUDY    31  25  78 W6        30.04R
$$

WVZ025-035-042-045-301100-
Southern West Virginia

CITY           SKY/WX    TMP DP  RH WIND       PRES   REMARKS
BECKLEY        LGT SNOW  28  24  85 NW12      30.05R FOG
LOGAN          CLOUDY    30  28  93 NW8       30.15R
BLUEFIELD      LGT SNOW  29  23  78 NW14G23   30.04R
LEWISBURG      LGT SNOW  31  27  84 W6        30.02R
$$

WVZ047-301100-
Northern Mountains of West Virginia

CITY           SKY/WX    TMP DP  RH WIND       PRES   REMARKS
ELKINS         LGT SNOW  29  27  92 NW10G21   30.01R FOG
$$

WVZ052-301100-
Eastern Panhandle of West Virginia

CITY           SKY/WX    TMP DP  RH WIND       PRES   REMARKS
MARTINSBURG    PTCLDY    38  22  52 NW14G25   29.95R
PETERSBURG     FLURRIES  34  26  70 N8G16     30.00R
$$



USA.gov is the U.S. government's official web portal to all federal, state and local government web resources and services.